Ainsworth, NE

2:15 PM CDT on September 29, 2016 (GMT -0500)
Ainsworth Municipal

Weather History for KANW - December, 2013

Change the Weather History Date:

Thursday, December 5, 2013

  Actual Average Record
Temperature  
Mean Temperature -1 °F -  
Max Temperature 6 °F 39 °F 61 °F (2012)
Min Temperature -9 °F 20 °F -9 °F (2013)
Degree Days  
Heating Degree Days 66    
Moisture  
Dew Point -9 °F    
Average Humidity 68    
Maximum Humidity 76    
Minimum Humidity 54    
Precipitation  
Precipitation 0.00 in - - ()
Sea Level Pressure  
Sea Level Pressure 30.22 in    
Wind  
Wind Speed 13 mph (WNW)    
Max Wind Speed 20 mph    
Max Gust Speed 26 mph    
Visibility 10 miles    
Events      
Averages and records for this station are not official NWS values.
T = Trace of Precipitation, MM = Missing Value Source: NWS Daily Summary

Daily Weather History Graph

Daily Weather History Graph

Search for Another Location

Airport or City:

Trip Planner

Search our weather history database for the weather conditions in past years. The results will help you decide how hot, cold, wet, or windy it might be!

Date:

Astronomy

Dec. 05, 2013 Rise Set
Actual Time 7:54 AM CST 5:06 PM CST
Civil Twilight 7:22 AM CST 5:38 PM CST
Nautical Twilight 6:47 AM CST 6:13 PM CST
Astronomical Twilight 6:13 AM CST 6:47 PM CST
Moon 10:14 AM CST (12/5) 8:31 PM CST (12/5)
Length of Visible Light 10h 15m
Length of Day
9h 12m
Waxing Crescent, 11% of the Moon is Illuminated
Dec 5
Waxing Crescent
Dec 9
First Quarter
Dec 17
Full
Dec 25
Last Quarter
Jan 1
New

Hourly Weather History & Observations

Time (CST) Temp. Windchill Dew Point Humidity Pressure Visibility Wind Dir Wind Speed Gust Speed Precip Events Conditions
12:15 AM 3.2 °F -17.1 °F -4.0 °F 72% 30.09 in 10.0 mi NW 18.4 mph 24.2 mph N/A   Clear
12:35 AM 2.3 °F -15.0 °F -4.5 °F 73% 30.09 in 10.0 mi WNW 12.7 mph 19.6 mph N/A   Clear
12:55 AM 2.3 °F -17.1 °F -4.5 °F 73% 30.10 in 10.0 mi WNW 16.1 mph - N/A   Clear
1:15 AM 2.3 °F -17.1 °F -4.5 °F 73% 30.10 in 10.0 mi WNW 16.1 mph 23.0 mph N/A   Clear
1:35 AM 2.8 °F -14.3 °F -4.7 °F 71% 30.11 in 10.0 mi WNW 12.7 mph 24.2 mph N/A   Clear
1:55 AM 1.6 °F -18.0 °F -5.3 °F 73% 30.11 in 10.0 mi WNW 16.1 mph 26.5 mph N/A   Clear
2:15 AM 1.9 °F -17.5 °F -5.4 °F 71% 30.11 in 10.0 mi NW 16.1 mph 24.2 mph N/A   Clear
2:35 AM 1.8 °F -15.7 °F -5.8 °F 71% 30.13 in 10.0 mi WNW 12.7 mph 24.2 mph N/A   Clear
2:55 AM 1.0 °F -17.3 °F -6.2 °F 72% 30.14 in 10.0 mi WNW 13.8 mph 21.9 mph N/A   Clear
3:15 AM 0.7 °F -15.4 °F -6.3 °F 72% 30.14 in 10.0 mi WNW 10.4 mph 20.7 mph N/A   Clear
3:35 AM 0.9 °F -17.6 °F -6.5 °F 71% 30.14 in 10.0 mi NW 13.8 mph - N/A   Clear
3:55 AM 0.9 °F -18.9 °F -6.7 °F 71% 30.14 in 10.0 mi NW 16.1 mph - N/A   Clear
4:15 AM 1.2 °F -17.1 °F -6.7 °F 69% 30.15 in 10.0 mi NW 13.8 mph - N/A   Clear
4:35 AM 0.5 °F -15.6 °F -6.9 °F 71% 30.15 in 10.0 mi WNW 10.4 mph - N/A   Clear
4:55 AM -0.4 °F -15.7 °F -7.8 °F 71% 30.15 in 10.0 mi WNW 9.2 mph - N/A   Clear
5:15 AM -1.5 °F -19.0 °F -8.5 °F 72% 30.15 in 10.0 mi WNW 11.5 mph - N/A   Clear
5:35 AM -3.1 °F -17.9 °F -9.9 °F 73% 30.16 in 10.0 mi West 8.1 mph - N/A   Clear
5:55 AM -5.1 °F -19.1 °F -11.7 °F 73% 30.18 in 10.0 mi WSW 6.9 mph - N/A   Clear
6:15 AM -4.9 °F -21.3 °F -11.2 °F 74% 30.18 in 10.0 mi West 9.2 mph - N/A   Clear
6:35 AM -5.3 °F -20.6 °F -11.2 °F 76% 30.18 in 10.0 mi WNW 8.1 mph - N/A   Clear
6:55 AM -5.6 °F -19.7 °F -12.3 °F 73% 30.20 in 10.0 mi West 6.9 mph - N/A   Clear
7:15 AM -4.9 °F -22.3 °F -11.4 °F 74% 30.21 in 10.0 mi West 10.4 mph - N/A   Clear
7:35 AM -5.8 °F -22.4 °F -12.3 °F 74% 30.21 in 10.0 mi West 9.2 mph - N/A   Clear
7:55 AM -5.1 °F -22.5 °F -11.7 °F 73% 30.20 in 10.0 mi WNW 10.4 mph - N/A   Clear
8:15 AM -6.3 °F -23.1 °F -13.0 °F 73% 30.21 in 10.0 mi WNW 9.2 mph - N/A   Clear
8:35 AM -5.4 °F -23.9 °F -12.5 °F 72% 30.21 in 10.0 mi WNW 11.5 mph - N/A   Clear
8:55 AM -4.9 °F -24.1 °F -12.1 °F 71% 30.21 in 10.0 mi WNW 12.7 mph - N/A   Clear
9:15 AM -2.9 °F -18.8 °F -10.3 °F 71% 30.22 in 10.0 mi WNW 9.2 mph - N/A   Clear
9:35 AM -0.4 °F -19.9 °F -9.4 °F 66% 30.23 in 10.0 mi NW 15.0 mph - N/A   Clear
9:55 AM -0.0 °F -19.4 °F -9.4 °F 65% 30.24 in 10.0 mi NW 15.0 mph - N/A   Clear
10:15 AM 1.4 °F -17.6 °F -8.1 °F 64% 30.24 in 10.0 mi NW 15.0 mph - N/A   Clear
10:35 AM 2.3 °F -16.4 °F -7.6 °F 63% 30.25 in 10.0 mi NW 15.0 mph 24.2 mph N/A   Clear
10:55 AM 2.7 °F -16.0 °F -7.4 °F 63% 30.26 in 10.0 mi NW 15.0 mph 24.2 mph N/A   Clear
11:15 AM 3.2 °F -16.5 °F -6.9 °F 63% 30.25 in 10.0 mi NW 17.3 mph 20.7 mph N/A   Clear
11:35 AM 3.7 °F -13.9 °F -6.7 °F 62% 30.25 in 10.0 mi NW 13.8 mph - N/A   Clear
11:55 AM 4.1 °F -16.4 °F -6.7 °F 61% 30.24 in 10.0 mi NW 19.6 mph - N/A   Clear
12:15 PM 4.6 °F -12.0 °F -6.2 °F 61% 30.24 in 10.0 mi WNW 12.7 mph - N/A   Clear
12:35 PM 5.0 °F -12.3 °F -6.0 °F 61% 30.23 in 10.0 mi NW 13.8 mph 17.3 mph N/A   Clear
12:55 PM 5.5 °F -12.9 °F -6.0 °F 59% 30.22 in 10.0 mi NW 16.1 mph - N/A   Clear
1:15 PM 6.4 °F -12.3 °F -5.3 °F 59% 30.22 in 10.0 mi NW 17.3 mph 21.9 mph N/A   Clear
1:35 PM 6.4 °F -13.3 °F -6.5 °F 55% 30.21 in 10.0 mi NW 19.6 mph - N/A   Clear
1:55 PM 6.4 °F -12.8 °F -6.9 °F 54% 30.21 in 10.0 mi NW 18.4 mph - N/A   Clear
2:15 PM 6.4 °F -12.3 °F -6.5 °F 55% 30.20 in 10.0 mi NW 17.3 mph - N/A   Clear
2:35 PM 5.9 °F -12.4 °F -6.3 °F 57% 30.18 in 10.0 mi NW 16.1 mph - N/A   Clear
2:55 PM 6.4 °F -11.1 °F -5.8 °F 57% 30.19 in 10.0 mi NW 15.0 mph 21.9 mph N/A   Clear
3:15 PM 6.3 °F -12.5 °F -5.8 °F 58% 30.20 in 10.0 mi NW 17.3 mph 23.0 mph N/A   Clear
3:35 PM 6.3 °F -11.3 °F -6.0 °F 57% 30.20 in 10.0 mi NW 15.0 mph 23.0 mph N/A   Clear
3:55 PM 5.9 °F -9.7 °F -6.2 °F 58% 30.22 in 10.0 mi NW 11.5 mph 18.4 mph N/A   Clear
4:15 PM 5.5 °F -8.4 °F -6.2 °F 59% 30.22 in 10.0 mi NW 9.2 mph - N/A   Clear
4:35 PM 4.8 °F -8.3 °F -6.2 °F 61% 30.23 in 10.0 mi WNW 8.1 mph - N/A   Clear
4:55 PM 3.6 °F -7.3 °F -6.7 °F 62% 30.25 in 10.0 mi West 5.8 mph - N/A   Clear
5:15 PM 0.5 °F -12.3 °F -7.6 °F 69% 30.25 in 10.0 mi WSW 6.9 mph - N/A   Clear
5:35 PM -1.8 °F -15.2 °F -9.2 °F 71% 30.25 in 10.0 mi West 6.9 mph - N/A   Clear
5:55 PM -1.3 °F -11.4 °F -9.0 °F 70% 30.27 in 10.0 mi West 4.6 mph - N/A   Clear
6:15 PM -3.5 °F -15.7 °F -10.1 °F 73% 30.28 in 10.0 mi West 5.8 mph - N/A   Clear
6:35 PM -3.6 °F -14.1 °F -10.3 °F 73% 30.28 in 10.0 mi West 4.6 mph - N/A   Clear
6:55 PM -4.9 °F -17.4 °F -11.6 °F 73% 30.29 in 10.0 mi West 5.8 mph - N/A   Clear
7:15 PM -5.8 °F -18.4 °F -12.3 °F 74% 30.30 in 10.0 mi West 5.8 mph - N/A   Clear
7:35 PM -4.5 °F -16.9 °F -10.5 °F 76% 30.30 in 10.0 mi WNW 5.8 mph - N/A   Clear
7:55 PM -4.9 °F -21.3 °F -11.4 °F 74% 30.30 in 10.0 mi NW 9.2 mph - N/A   Clear
8:15 PM -4.2 °F -16.5 °F -11.9 °F 69% 30.30 in 10.0 mi NW 5.8 mph - N/A   Clear
8:35 PM -4.4 °F -21.6 °F -11.4 °F 72% 30.30 in 10.0 mi NW 10.4 mph - N/A   Clear
8:55 PM -4.4 °F -19.5 °F -12.1 °F 69% 30.30 in 10.0 mi NW 8.1 mph - N/A   Clear
9:15 PM -4.2 °F -21.4 °F -12.1 °F 69% 30.30 in 10.0 mi NW 10.4 mph - N/A   Clear
9:35 PM -6.9 °F -17.9 °F -13.9 °F 72% 30.31 in 10.0 mi WNW 4.6 mph - N/A   Clear
9:55 PM -6.0 °F -16.9 °F -13.0 °F 72% 30.31 in 10.0 mi WNW 4.6 mph - N/A   Clear
10:15 PM -6.7 °F -21.0 °F -13.5 °F 72% 30.31 in 10.0 mi WNW 6.9 mph - N/A   Clear
10:35 PM -5.6 °F -21.0 °F -13.2 °F 70% 30.33 in 10.0 mi NW 8.1 mph - N/A   Clear
10:55 PM -5.4 °F -20.8 °F -13.4 °F 69% 30.33 in 10.0 mi NW 8.1 mph - N/A   Clear
11:15 PM -7.6 °F -20.6 °F -14.8 °F 71% 30.34 in 10.0 mi West 5.8 mph - N/A   Clear
11:35 PM -8.5 °F -21.6 °F -15.3 °F 72% 30.34 in 10.0 mi West 5.8 mph - N/A   Clear
11:55 PM -9.6 °F -24.5 °F -16.2 °F 73% 30.35 in 10.0 mi West 6.9 mph - N/A   Clear